TimeMST,TemperatureF,Dew PointF,Humidity,Sea Level PressureIn,VisibilityMPH,Wind Direction,Wind SpeedMPH,Gust SpeedMPH,PrecipitationIn,Events,Conditions,WindDirDegrees,DateUTC
12:56 AM,32.0,21.9,66,29.77,10.0,West,15.0,-,N/A,,Partly Cloudy,280,2013-11-04 07:56:00
1:08 AM,33.8,23.0,65,29.73,10.0,West,17.3,23.0,N/A,,Mostly Cloudy,280,2013-11-04 08:08:00
1:56 AM,34.0,21.9,61,29.78,10.0,West,26.5,38.0,N/A,,Overcast,280,2013-11-04 08:56:00
2:56 AM,33.1,21.9,64,29.80,10.0,WNW,24.2,36.8,N/A,,Overcast,290,2013-11-04 09:56:00
3:56 AM,32.0,21.0,64,29.83,10.0,WNW,20.7,29.9,N/A,,Overcast,290,2013-11-04 10:56:00
4:56 AM,32.0,19.9,61,29.84,10.0,West,23.0,34.5,N/A,,Overcast,280,2013-11-04 11:56:00
5:56 AM,30.9,19.9,64,29.87,10.0,West,27.6,34.5,N/A,,Overcast,280,2013-11-04 12:56:00
6:56 AM,30.0,19.0,64,29.90,10.0,WNW,27.6,36.8,N/A,,Overcast,290,2013-11-04 13:56:00
7:56 AM,30.9,19.9,64,29.91,10.0,WNW,21.9,34.5,N/A,,Overcast,290,2013-11-04 14:56:00
8:39 AM,33.8,19.4,56,29.85,10.0,West,28.8,38.0,N/A,,Partly Cloudy,280,2013-11-04 15:39:00
8:56 AM,33.1,19.9,59,29.93,10.0,WNW,28.8,36.8,N/A,,Clear,290,2013-11-04 15:56:00
9:56 AM,33.1,19.9,59,29.94,10.0,WNW,25.3,33.4,N/A,,Clear,290,2013-11-04 16:56:00
10:56 AM,35.1,19.0,52,29.97,10.0,WNW,31.1,38.0,N/A,,Partly Cloudy,290,2013-11-04 17:56:00
11:56 AM,37.0,16.0,42,29.96,10.0,WNW,26.5,35.7,N/A,,Clear,290,2013-11-04 18:56:00
12:56 PM,37.9,16.0,41,29.96,10.0,West,24.2,33.4,N/A,,Clear,280,2013-11-04 19:56:00
1:56 PM,39.0,15.1,38,29.97,10.0,West,25.3,31.1,N/A,,Clear,280,2013-11-04 20:56:00
2:56 PM,37.9,12.9,36,29.98,10.0,West,24.2,36.8,N/A,,Clear,280,2013-11-04 21:56:00
3:56 PM,36.0,12.0,37,30.00,10.0,WNW,20.7,32.2,N/A,,Clear,290,2013-11-04 22:56:00
4:56 PM,30.9,12.9,47,30.03,10.0,WNW,12.7,-,N/A,,Clear,290,2013-11-04 23:56:00
5:56 PM,27.0,14.0,58,30.07,10.0,WNW,10.4,-,N/A,,Clear,290,2013-11-05 00:56:00
6:56 PM,23.0,14.0,68,30.09,10.0,West,11.5,-,N/A,,Clear,270,2013-11-05 01:56:00
7:56 PM,23.0,14.0,68,30.10,10.0,West,10.4,-,N/A,,Clear,260,2013-11-05 02:56:00
8:56 PM,23.0,15.1,72,30.11,10.0,West,11.5,-,N/A,,Clear,270,2013-11-05 03:56:00
9:56 PM,24.1,15.1,69,30.12,10.0,WNW,12.7,-,N/A,,Clear,290,2013-11-05 04:56:00
10:56 PM,21.9,15.1,75,30.13,10.0,WNW,15.0,-,N/A,,Clear,300,2013-11-05 05:56:00
11:56 PM,21.0,12.9,71,30.15,10.0,WNW,11.5,-,N/A,,Clear,290,2013-11-05 06:56:00